Location: Le Castellard
(44.1862°N, 6.1301°E)
Time: 18:45:31
(UTC+00:00)

Cosmos 1726 - Pass Details

Date: 18 January 2020
Orbit: 482 x 500 km, 82.5° (Epoch: 15 February)

Event Time Altitude Azimuth Distance (km) Brightness Sun altitude
Rises 05:42:05 0° 188° (S) 2,561 5.8 -14.8°
Reaches altitude 10° 05:44:11 10° 189° (S) 1,681 4.9 -14.5°
Maximum altitude 05:47:52 85° 276° (W) 499 2.0 -13.8°
Drops below altitude 10° 05:51:34 10° 7° (N) 1,686 4.7 -13.2°
Sets 05:53:40 0° 8° (N) 2,569 5.7 -12.8°
